DW5210 Weather Reports


time (UTC)temp
C
wind
direction
speed
KPH
gust
KPH
rain 1hr
cm
rain 24hr
cm
rain mn
cm
humidity
%
barometer
mb
20260507103007 16 137 3.2 8.0 0.00 0.00 0.00 53 1014.2
20260507090006 14 155 1.6 4.8 0.00 0.00 0.00 67 1014.5
20260507083005 13 162 4.8 9.7 0.00 0.00 0.00 72 1014.6
20260507080005 11 10 3.2 8.0 0.00 0.00 0.00 85 1014.7
20260507073504 8 10 0.0 1.6 0.00 0.00 0.00 91 1014.7
20260507073006 8 15 0.0 0.0 0.00 0.00 0.00 93 1014.7
20260507070504 5 15 0.0 0.0 0.00 0.00 0.00 95 1014.7
20260507063005 3 15 0.0 0.0 0.00 0.00 0.00 96 1014.8
20260507053504 0 15 0.0 0.0 0.00 0.00 0.00 93 1014.3
20260507050005 0 15 0.0 0.0 0.00 0.00 0.00 91 1014.2
20260507043504 0 15 0.0 0.0 0.00 0.00 0.00 90 1014.2
20260507043004 0 15 0.0 0.0 0.00 0.00 0.00 90 1014.1
20260507040004 0 15 0.0 0.0 0.00 0.00 0.00 90 1014.2
20260507033504 0 15 0.0 0.0 0.00 0.00 0.00 90 1014.1
20260507033004 0 15 0.0 0.0 0.00 0.00 0.00 90 1014.1
20260507030005 0 15 0.0 0.0 0.00 0.00 0.00 90 1014.1
20260507020504 1 15 0.0 0.0 0.00 0.00 0.00 89 1013.8
20260507013004 1 15 0.0 0.0 0.00 0.00 0.00 88 1013.7
20260507010504 1 15 0.0 0.0 0.00 0.00 0.00 88 1013.7
20260507003504 2 15 0.0 0.0 0.00 0.00 0.00 87 1013.7
20260507003004 2 15 0.0 0.0 0.00 0.00 0.00 87 1013.8
20260507000004 3 15 0.0 0.0 0.00 0.00 0.00 86 1013.8
20260506233504 3 15 0.0 0.0 0.00 0.00 0.00 84 1013.6
20260506230504 5 15 0.0 0.0 0.00 0.00 0.00 83 1013.4
20260506230005 5 15 0.0 0.0 0.00 0.00 0.00 82 1013.4
20260506223504 6 15 0.0 0.0 0.00 0.00 0.00 81 1013.5
20260506223005 6 15 0.0 0.0 0.00 0.00 0.00 79 1013.5
20260506220504 7 15 0.0 0.0 0.00 0.00 0.00 76 1013.2
20260506213504 9 15 0.0 0.0 0.00 0.00 0.00 73 1013.2
20260506210004 10 15 1.6 8.0 0.00 0.00 0.00 69 1013.0
20260506200504 11 14 1.6 8.0 0.00 0.00 0.00 68 1012.7
20260506200004 11 14 3.2 9.7 0.00 0.00 0.00 67 1012.7
20260506180005 12 10 3.2 11.3 0.00 0.00 0.00 64 1011.6
20260506173504 12 10 8.0 14.5 0.00 0.00 0.00 63 1011.3
20260506173004 13 8 4.8 14.5 0.00 0.00 0.00 62 1011.3
20260506170504 13 10 1.6 8.0 0.00 0.00 0.00 61 1011.1
20260506170005 13 10 1.6 9.7 0.00 0.00 0.00 60 1011.1
20260506150505 14 38 4.8 14.5 0.00 0.00 0.00 60 1011.4
20260506150005 14 38 4.8 16.1 0.00 0.00 0.00 58 1011.4
20260506140505 16 12 9.7 25.7 0.00 0.00 0.00 56 1011.2
20260506140005 16 26 8.0 25.7 0.00 0.00 0.00 53 1011.2
20260506133505 16 37 9.7 24.1 0.00 0.00 0.00 52 1011.2
20260506133006 16 12 8.0 20.9 0.00 0.00 0.00 53 1011.1
20260506120006 15 24 8.0 22.5 0.00 0.00 0.00 54 1011.4
20260506110005 15 26 4.8 16.1 0.00 0.00 0.00 59 1011.6